This is the latest recevied weather packets stored in our database for station/object KL1IO. If no packets are shown the sender has not sent any weather packets the latest 1 day(s).
| Time | Temp. | Humidity | Pressure | Rain* | Wind** | Luminosity | Snow |
|---|---|---|---|---|---|---|---|
| 1778032594 | 3.89° C | 99% | 1012.2 hPa | 1.78 mm | - | 51 W/m² | - |
| 1778032291 | 3.89° C | 99% | 1012.1 hPa | 3.05 mm | - | 53 W/m² | - |
| 1778031989 | 3.89° C | 99% | 1012.1 hPa | 1.27 mm | - | 56 W/m² | - |
| 1778031684 | 3.89° C | 99% | 1011.9 hPa | 1.78 mm | - | 59 W/m² | - |
| 1778031383 | 3.89° C | 99% | 1011.9 hPa | 3.56 mm | - | 58 W/m² | - |
| 1778031080 | 3.89° C | 99% | 1012 hPa | 3.05 mm | - | 55 W/m² | - |
| 1778030776 | 3.89° C | 99% | 1012 hPa | 1.27 mm | - | 55 W/m² | - |
| 1778030472 | 3.89° C | 99% | 1011.9 hPa | 1.78 mm | - | 51 W/m² | - |
| 1778029866 | 3.89° C | 99% | 1011.8 hPa | 3.05 mm | - | 55 W/m² | - |
| 1778029262 | 3.89° C | 99% | 1011.9 hPa | 3.05 mm | - | 54 W/m² | - |
| 1778028959 | 3.89° C | 99% | 1011.9 hPa | 1.78 mm | - | 48 W/m² | - |
| 1778028655 | 3.89° C | 99% | 1011.8 hPa | 1.27 mm | - | 51 W/m² | - |
| 1778028352 | 3.89° C | 99% | 1011.8 hPa | 3.05 mm | - | 59 W/m² | - |
| 1778028049 | 3.89° C | 99% | 1011.7 hPa | 3.05 mm | - | 66 W/m² | - |
| 1778027745 | 3.89° C | 99% | 1011.8 hPa | 1.27 mm | - | 69 W/m² | - |
| 1778027442 | 4.44° C | 99% | 1011.8 hPa | 1.78 mm | - | 68 W/m² | - |
| 1778026834 | 4.44° C | 99% | 1011.8 hPa | 1.27 mm | - | 71 W/m² | - |
| 1778026530 | 4.44° C | 99% | 1011.9 hPa | 1.78 mm | - | 67 W/m² | - |
| 1778024714 | 5° C | 99% | 1011.6 hPa | 1.78 mm | - | 73 W/m² | - |
| 1778024108 | 4.44° C | 99% | 1011.6 hPa | 1.27 mm | - | 80 W/m² | - |
| 1778022897 | 5° C | 99% | 1011.4 hPa | 1.27 mm | - | 99 W/m² | - |
| 1778022293 | 5° C | 99% | 1011.5 hPa | 1.78 mm | - | 108 W/m² | - |
| 1778021989 | 5° C | 99% | 1011.4 hPa | 0 mm | - | 111 W/m² | - |
| 1778019866 | 5° C | 99% | 1011.2 hPa | 1.78 mm | - | 97 W/m² | - |
| 1778018351 | 5° C | 99% | 1011.2 hPa | 1.78 mm | - | 111 W/m² | - |
* Rain latest hour (hover to see other rain measurements)
** Current wind speed in m/s (hover to see current wind gust speed)